King Salmon, AK

7:05 AM AKDT on August 29, 2016 (GMT -0800)
Port Heiden

Weather History for PAPH - October, 2012

Change the Weather History Date:

Wednesday, October 24, 2012

  Actual Average Record
Temperature  
Mean Temperature 22 °F -  
Max Temperature 33 °F 38 °F 51 °F (2013)
Min Temperature 12 °F 28 °F 12 °F (2012)
Degree Days  
Heating Degree Days 42    
Moisture  
Dew Point 17 °F    
Average Humidity 82    
Maximum Humidity 100    
Minimum Humidity 65    
Precipitation  
Precipitation 0.06 in - - ()
Sea Level Pressure  
Sea Level Pressure 30.27 in    
Wind  
Wind Speed 12 mph (NE)    
Max Wind Speed 15 mph    
Max Gust Speed -    
Visibility 9 miles    
Events      
Averages and records for this station are not official NWS values.
T = Trace of Precipitation, MM = Missing Value Source: NWS Daily Summary

Daily Weather History Graph

Daily Weather History Graph

Search for Another Location

Airport or City:

Trip Planner

Search our weather history database for the weather conditions in past years. The results will help you decide how hot, cold, wet, or windy it might be!

Date:

Astronomy

Oct. 24, 2012 Rise Set
Actual Time 9:28 AM AKDT 7:07 PM AKDT
Civil Twilight 8:49 AM AKDT 7:47 PM AKDT
Nautical Twilight 8:04 AM AKDT 8:31 PM AKDT
Astronomical Twilight 7:20 AM AKDT 9:15 PM AKDT
Moon 5:14 PM AKDT (10/24) 3:43 AM AKDT (10/24)
Length of Visible Light 10h 58m
Length of Day
9h 38m
Waxing Gibbous, 77% of the Moon is Illuminated
Oct 24
Waxing Gibbous
Oct 29
Full
Nov 6
Last Quarter
Nov 13
New
Nov 20
First Quarter

Hourly Weather History & Observations

Time (AKDT) Temp. Windchill Dew Point Humidity Pressure Visibility Wind Dir Wind Speed Gust Speed Precip Events Conditions
12:16 AM 17.6 °F 3.7 °F 10.4 °F 73% 30.27 in 1.5 mi NE 13.8 mph - N/A   Overcast
12:36 AM 15.8 °F 2.7 °F 10.4 °F 79% 30.27 in 10.0 mi ENE 11.5 mph - N/A   Scattered Clouds
12:56 AM 15.8 °F 3.4 °F 10.4 °F 79% 30.26 in 10.0 mi NE 10.4 mph - N/A   Clear
1:16 AM 15.8 °F 2.7 °F 10.4 °F 79% 30.27 in 10.0 mi ENE 11.5 mph - N/A   Clear
1:36 AM 15.8 °F 4.2 °F 12.2 °F 86% 30.27 in 10.0 mi NNE 9.2 mph - N/A   Clear
1:56 AM 15.8 °F 0.9 °F 14.0 °F 93% 30.28 in 10.0 mi NNE 15.0 mph - N/A   Clear
2:16 AM 17.6 °F 3.7 °F 12.2 °F 79% 30.28 in 2.5 mi NE 13.8 mph - N/A   Mostly Cloudy
2:36 AM 17.6 °F 4.3 °F 15.8 °F 93% 30.27 in 2.0 mi NE 12.7 mph - N/A   Overcast
2:56 AM 15.8 °F 1.4 °F 12.2 °F 86% 30.26 in 2.5 mi NE 13.8 mph - N/A   Overcast
3:16 AM 15.8 °F 2.7 °F 12.2 °F 86% 30.26 in 1.5 mi NE 11.5 mph - N/A   Overcast
3:36 AM 15.8 °F 3.4 °F 14.0 °F 93% 30.27 in 1.8 mi NNE 10.4 mph - N/A   Overcast
3:56 AM 15.8 °F 2.1 °F 14.0 °F 93% 30.26 in 2.5 mi NNE 12.7 mph - N/A   Mostly Cloudy
4:16 AM 15.8 °F 2.1 °F 12.2 °F 86% 30.26 in 10.0 mi NE 12.7 mph - N/A   Partly Cloudy
4:36 AM 15.8 °F 2.7 °F 12.2 °F 86% 30.27 in 10.0 mi NNE 11.5 mph - N/A   Clear
4:56 AM 14.0 °F -0.2 °F 12.2 °F 93% 30.27 in 10.0 mi NE 12.7 mph - N/A   Clear
5:16 AM 15.8 °F 0.9 °F 14.0 °F 93% 30.26 in 10.0 mi NE 15.0 mph - N/A   Clear
5:36 AM 14.0 °F -0.2 °F 14.0 °F 100% 30.26 in 10.0 mi NNE 12.7 mph - N/A   Clear
5:56 AM 14.0 °F 1.2 °F 10.4 °F 86% 30.26 in 10.0 mi NE 10.4 mph - 0.01 in   Clear
6:16 AM 14.0 °F 1.2 °F 10.4 °F 86% 30.26 in 10.0 mi NE 10.4 mph - N/A   Clear
6:36 AM 14.0 °F 0.5 °F 8.6 °F 79% 30.26 in 10.0 mi NNE 11.5 mph - 0.02 in   Clear
6:56 AM 12.2 °F -1.8 °F 6.8 °F 79% 30.25 in 10.0 mi NNE 11.5 mph - 0.05 in   Clear
7:16 AM 15.8 °F 4.2 °F 10.4 °F 79% 30.26 in 10.0 mi NNE 9.2 mph - N/A   Clear
7:36 AM 14.0 °F 1.2 °F 10.4 °F 86% 30.26 in 10.0 mi NNE 10.4 mph - N/A   Clear
7:56 AM 12.2 °F -0.2 °F 5.0 °F 73% 30.26 in 10.0 mi NNE 9.2 mph - N/A   Clear
8:16 AM 12.2 °F -1.8 °F 8.6 °F 85% 30.26 in 10.0 mi NNE 11.5 mph - N/A   Clear
8:36 AM 12.2 °F -1.0 °F 10.4 °F 92% 30.26 in 10.0 mi NNE 10.4 mph - N/A   Clear
8:56 AM 12.2 °F -1.0 °F 10.4 °F 92% 30.26 in 10.0 mi NE 10.4 mph - N/A   Clear
9:16 AM 14.0 °F 2.0 °F 12.2 °F 93% 30.26 in 10.0 mi NE 9.2 mph - N/A   Clear
9:36 AM 15.8 °F 2.7 °F 12.2 °F 86% 30.26 in 10.0 mi NE 11.5 mph - N/A   Clear
9:56 AM 15.8 °F 2.7 °F 12.2 °F 86% 30.26 in 10.0 mi NNE 11.5 mph - N/A   Clear
10:16 AM 15.8 °F 4.2 °F 14.0 °F 93% 30.27 in 10.0 mi ENE 9.2 mph - N/A   Clear
10:36 AM 17.6 °F 3.7 °F 14.0 °F 86% 30.27 in 10.0 mi NE 13.8 mph - N/A   Clear
10:56 AM 19.4 °F 6.6 °F 15.8 °F 86% 30.27 in 10.0 mi NNE 12.7 mph - N/A   Clear
11:16 AM 19.4 °F 7.9 °F 15.8 °F 86% 30.27 in 10.0 mi NNE 10.4 mph - N/A   Clear
11:36 AM 21.2 °F 10.9 °F 19.4 °F 93% 30.27 in 10.0 mi NE 9.2 mph - N/A   Clear
11:56 AM 24.8 °F 14.0 °F 21.2 °F 86% 30.27 in 10.0 mi NE 11.5 mph - N/A   Clear
12:16 PM 26.6 °F 16.2 °F 21.2 °F 80% 30.28 in 10.0 mi NE 11.5 mph - N/A   Clear
12:36 PM 24.8 °F 14.0 °F 19.4 °F 80% 30.28 in 10.0 mi NE 11.5 mph - N/A   Partly Cloudy
12:56 PM 26.6 °F 18.2 °F 21.2 °F 80% 30.28 in 10.0 mi NE 8.1 mph - N/A   Mostly Cloudy
1:16 PM 28.4 °F 20.4 °F 21.2 °F 74% 30.28 in 10.0 mi NE 8.1 mph - N/A   Mostly Cloudy
1:36 PM 28.4 °F 18.5 °F 21.2 °F 74% 30.28 in 10.0 mi NE 11.5 mph - N/A   Overcast
1:56 PM 26.6 °F 15.7 °F 19.4 °F 74% 30.27 in 10.0 mi NE 12.7 mph - N/A   Overcast
2:16 PM 26.6 °F 16.2 °F 19.4 °F 74% 30.27 in 10.0 mi NE 11.5 mph - N/A   Scattered Clouds
2:36 PM 26.6 °F 15.7 °F 21.2 °F 80% 30.27 in 10.0 mi NE 12.7 mph - N/A   Clear
2:56 PM 26.6 °F 16.8 °F 19.4 °F 74% 30.27 in 10.0 mi NE 10.4 mph - N/A   Scattered Clouds
3:16 PM 30.2 °F 20.8 °F 23.0 °F 75% 30.27 in 10.0 mi NE 11.5 mph - N/A   Overcast
3:36 PM 33.8 °F 24.8 °F 23.0 °F 65% 30.26 in 10.0 mi NE 12.7 mph - N/A   Overcast
3:56 PM 32.0 °F 22.5 °F 24.8 °F 75% 30.27 in 10.0 mi NE 12.7 mph - N/A   Overcast
4:16 PM 33.8 °F 24.3 °F 23.0 °F 65% 30.27 in 10.0 mi NE 13.8 mph - N/A   Overcast
4:36 PM 33.8 °F 25.3 °F 24.8 °F 70% 30.27 in 10.0 mi ENE 11.5 mph - N/A   Overcast
4:56 PM 33.8 °F 25.8 °F 24.8 °F 70% 30.27 in 10.0 mi ENE 10.4 mph - N/A   Overcast
5:16 PM 33.8 °F 25.8 °F 24.8 °F 70% 30.27 in 10.0 mi NE 10.4 mph - N/A   Overcast
5:36 PM 33.8 °F 25.3 °F 24.8 °F 70% 30.27 in 10.0 mi NE 11.5 mph - N/A   Overcast
5:56 PM 32.0 °F 23.6 °F 24.8 °F 75% 30.27 in 10.0 mi NE 10.4 mph - N/A   Overcast
6:16 PM 30.2 °F 21.3 °F 23.0 °F 75% 30.27 in 10.0 mi NNE 10.4 mph - N/A   Mostly Cloudy
6:36 PM 30.2 °F 20.2 °F 23.0 °F 75% 30.28 in 10.0 mi NE 12.7 mph - N/A   Overcast
6:56 PM 28.4 °F 18.0 °F 21.2 °F 74% 30.29 in 10.0 mi NE 12.7 mph - N/A   Overcast
7:16 PM 26.6 °F 16.2 °F 23.0 °F 86% 30.29 in 10.0 mi NE 11.5 mph - N/A   Overcast
7:36 PM 28.4 °F 18.0 °F 24.8 °F 86% 30.29 in 10.0 mi NE 12.7 mph - N/A   Overcast
7:56 PM 28.4 °F 18.0 °F 24.8 °F 86% 30.29 in 10.0 mi NE 12.7 mph - N/A   Overcast
10:16 PM 26.6 °F 15.2 °F 21.2 °F 80% 30.30 in 10.0 mi NE 13.8 mph - N/A   Clear
10:36 PM 24.8 °F 14.0 °F 21.2 °F 86% 30.31 in 10.0 mi NE 11.5 mph - N/A   Clear
10:56 PM 24.8 °F 14.0 °F 21.2 °F 86% 30.31 in 10.0 mi NE 11.5 mph - N/A   Clear
11:16 PM 23.0 °F 12.4 °F 19.4 °F 86% 30.31 in 10.0 mi ENE 10.4 mph - N/A   Clear
11:36 PM 23.0 °F 13.1 °F 19.4 °F 86% 30.31 in 10.0 mi East 9.2 mph - N/A   Clear
11:56 PM 21.2 °F 11.7 °F 17.6 °F 86% 30.30 in 10.0 mi NE 8.1 mph - N/A   Clear